Location: Unspecified
(0.0000°N, 0.0000°E)
Time: 15:46:54
(UTC+00:00)

Explorer 7 - Visible Passes

Search period start: 24 June 2017 00:00
Search period end: 04 July 2017 00:00
Orbit: 486 x 684 km, 50.3° (Epoch: 23 June)

Date Brightness Start Highest point End Pass type
(mag) Time Alt. Az. Time Alt. Az. Time Alt. Az.
24 Jun 8.8 04:26:40 10° N 04:30:41 33° NE 04:34:56 10° ESE visible
25 Jun 7.3 04:32:01 10° NNW 04:36:26 72° NE 04:41:09 10° SE visible
26 Jun 7.1 04:39:58 26° WNW 04:42:13 52° SW 04:46:50 10° SSE visible
27 Jun 8.4 04:49:28 22° SSW 04:49:28 22° SSW 04:51:56 10° S visible
